Regional Weather Roundup
Issued by NWS Pendleton, OR

Home | Current Version | Previous Version | Text Only | Print | Product List | Glossary On
Versions: 1 2 3 4 5 6 7 8 9 10 11 12 13 14 15 16 17 18 19 20 21 22 23 24 25 26 27 28 29 30 31 32 33 34 35 36 37 38 39 40 41 42 43 44 45 46 47 48 49 50
000
ASUS46 KPDT 211510
RWRPDT
PENDLETON REGIONAL WEATHER ROUNDUP
NATIONAL WEATHER SERVICE PENDLETON OREGON
800 AM PDT SUN SEP 21 2014

NOTE: FAIR INDICATES FEW OR NO CLOUDS BELOW 12,000 FEET WITH NO
SIGNIFICANT WEATHER AND/OR OBSTRUCTIONS TO VISIBILITY.

# INDICATES UNOFFICIAL STATION AND DATA

WAZ520-211610-
EAST SLOPES OF WASHINGTON CASCADES

CITY            SKY/WX      TMP DP  RH  WIND    PRES   REMARKS
#BUMPING DAM    N/A         44  N/A N/A N5      N/A
#CLE ELUM HS    N/A         46  43  89  CALM    29.98R
#CLE ELUM 2NW   N/A         50  44  80  CALM    N/A
#CLE ELUM LAKE  N/A         60  44  55  CALM    29.89F
#CLIFFDEL 2NW   N/A         45  42  89  S1      N/A
#EASTON DOT     N/A         51  46  83  CALM    N/A
#GLENWOOD       N/A         45  44  96  CALM    29.94R
#MANASTASH CYN  N/A         54  41  61  CALM    30.01S
#NELSON         N/A         45  43  93  CALM    29.98S
#NELSON 3SW     N/A         54  46  74  CALM    30.12S
#NILE           N/A         48  43  83  W2      29.26S
#PEOH POINT     N/A         63  40  43  E2      N/A
#RONALD 2NW     N/A         56  45  66  CALM    29.92R
#SNOWDEN        N/A         54  38  55  CALM    N/A
#TEANAWAY 4NE   N/A         46  44  93  CALM    N/A
#TROUT LAKE 1NE N/A         48  46  93  CALM    29.93S
$$

WAZ521-211610-
SIMCOE HIGHLANDS

CITY            SKY/WX      TMP DP  RH  WIND    PRES   REMARKS
#BICKLETON HS   N/A         66  37  34  N6      30.09S
#SATUS PASS DOT N/A         58  39  49  CALM    N/A
#CENTERVILLE 4W N/A         61  46  58  CALM    29.74R
#CENTERVILLE 1SWN/A         47  38  71  CALM    29.92R
#GOLDENDALE     N/A         53  44  71  E1      N/A
#GOLDENDALE 1NE N/A         53  42  66  VRB2    N/A
#GOLDENDALE 1S  N/A         55  45  69  CALM    29.96R
#GOLDENDALE 5WNWN/A         56  45  66  CALM    29.90R
#GOODNOE HILLS  N/A         66  48  52  W2      29.90R
#LYLE 6NE       N/A         59  47  64  N5      29.86S
$$

WAZ026-211610-
KITTITAS VALLEY

CITY            SKY/WX      TMP DP  RH  WIND    PRES   REMARKS
ELLENSBURG AP   SUNNY       53  46  77  W3      30.01S
#ELLENSBURG CWU N/A         50  46  86  CALM    29.92R
#ELLENSBURG 3NE N/A         51  46  83  CALM    30.01S
#ELLENSBURG     N/A         56  51  83  CALM    N/A
#KITTITAS 3S    N/A         45  44  96  CALM    29.96S
#RYEGRASS DOT   N/A         61  44  53  CALM    N/A
#THORP 6N       N/A         55  41  59  NW2     29.95S
$$

WAZ027-211610-
YAKIMA VALLEY

CITY            SKY/WX      TMP DP  RH  WIND    PRES   REMARKS
SUNNYSIDE AP    CLOUDY      50  48  93  CALM    29.95R
YAKIMA AIRPORT  SUNNY       56  48  74  NW5     29.98S
YAKIMA-VAGABOND SUNNY       61  44  53  VRB2    30.00R
#COWICHE 1N     N/A         61  47  60  NW5     30.15S
#DONALD 2NE     N/A         71  42  35  S1      30.28R
#GRANDVIEW      N/A         56  51  83  CALM    29.94R
#MABTON         N/A         58  50  75  CALM    29.94S
#MOXEE 2E       N/A         59  44  57  E1      29.93S
#NACHES 2SW     N/A         60  48  64  W7      30.00S
#TERRACE HTS    N/A         53  48  83  CALM    29.90R
#TOPPENISH      N/A         59  50  72  CALM    29.84R
#WAPATO 4NE     N/A         71  42  35  S1      30.28R
#WEST VALLEY    N/A         55  46  72  CALM    29.92S
#W YAKIMA       N/A         62  48  60  N2      29.92S
#WHITE SWAN 5E  N/A         54  50  86  CALM    29.92S
#WILEY CITY 3W  N/A         59  53  80  CALM    29.98R
$$

WAZ028-211610-
LOWER COLUMBIA BASIN...WASHINGTON

CITY            SKY/WX      TMP DP  RH  WIND    PRES   REMARKS
HANFORD         MOSUNNY     67  45  45  NW7     29.93R
PASCO           SUNNY       57  49  75  CALM    29.96R
PROSSER AWOS    N/A         57  52  83  NE2     29.98S
RICHLAND AWOS   SUNNY       59  50  72  S3      29.95S
#BASIN CITY 5SW N/A         59  49  69  NE1     29.95R
#BENTON CITY    N/A         55  50  83  CALM    29.84S
#CONNELL 5N     N/A         56  44  64  CALM    29.92R
#CONNELL 5NW    N/A         55  45  69  CALM    29.88R
#ELTOPIA        N/A         56  47  72  CALM    29.90R
#ELTOPIA 6NW    N/A         59  46  62  N5      28.93R
#KENNEWICK 3S   N/A         59  47  64  CALM    29.93R
#PASCO-BROADMOORN/A         61  49  65  NE2     29.83S
#PATERSON       N/A         58  50  75  NE1     29.91S
#PROSSER DOT    N/A         53  51  93  CALM    N/A
#PROSSER        N/A         61  47  60  CALM    29.92R
#SAGEMOOR 2W    N/A         58  47  67  CALM    29.79R
#TOUCHET 2S     N/A         49  46  89  CALM    29.93R
#WEST PASCO     N/A         59  47  64  NE1     29.95R
$$

WAZ029-211610-
FOOTHILLS OF THE BLUES...WASHINGTON

CITY            SKY/WX      TMP DP  RH  WIND    PRES   REMARKS
WALLA WALLA AP  SUNNY       64  46  52  SW3     29.97R
#DAYTON SCHOOL  N/A         56  39  53  CALM    29.96S
#DELANEY DOT    N/A         46  41  83  CALM    N/A
#LOWDEN 2SE     N/A         55  50  83  CALM    29.92R
#PLEASANT VIEW 1N/A         64  43  46  CALM    29.93S
#PRESCOTT       N/A         54  45  71  CALM    29.91S
#SUDBURY        N/A         56  N/A N/A NE2     N/A
#WHITMAN COLLEGEN/A         63  49  60  CALM    29.97R
#WAITSBURG 8N   N/A         66  36  33  S1      29.91S
#WALLA WALLA 5E N/A         61  47  60  W7      N/A
#WALLA WALLA U  N/A         57  49  75  CALM    29.92R
#WHITMAN MISSIONN/A         51  48  89  CALM    29.95R
$$

WAZ030-211610-
BLUE MOUNTAINS...WASHINGTON

CITY            SKY/WX      TMP DP  RH  WIND    PRES   REMARKS
$$

ORZ009-041-WAZ024-211610-
COLUMBIA RIVER GORGE

CITY            SKY/WX      TMP DP  RH  WIND    PRES   REMARKS
HOOD RIVER AP   SUNNY       55  48  77  S6      29.95R
THE DALLES AP   SUNNY       58  47  67  CALM    29.94S
#ARLINGTON AIRPON/A         64  49  58  W2      29.95F
#ARLINGTON HS   N/A         62  46  56  CALM    29.84R
#MARYHILL       N/A         62  47  58  CALM    N/A
#MARYHILL 2W    N/A         63  51  65  CALM    N/A
#MOSIER 1S      N/A         60  40  47  CALM    29.97R
#MURDOCK        N/A         59  52  78  CALM    29.95S
#RUFUS DOT      N/A         62  48  60  S3      N/A

$$

ORZ510-211610-
NORTH CENTRAL OREGON

CITY            SKY/WX      TMP DP  RH  WIND    PRES   REMARKS
#CHENOWITH 1W   N/A         67  45  45  E5      N/A
#COW CYN RST AREN/A         61  45  56  CALM    N/A
#DUFUR 9E       N/A         67  46  47  SE7     29.93R
#GRASS VALLEY   N/A         56  47  72  S1      N/A
#GRASS VALLEY 1SN/A         58  46  64  CALM    29.95R
#KENT DOT       N/A         58  41  53  S3      N/A
#MAUPIN SCHOOL  N/A         57  47  69  CALM    28.86R
#MORO SCHOOL    N/A         55  49  80  CALM    30.00R
#SHANIKO 5WSW   N/A         60  41  49  SE5     N/A
#SHANIKO 4NW    N/A         62  44  52  CALM    30.04S
#TYGH VALLEY 2NEN/A         55  46  72  CALM    29.93R
#WAPANITIA AIRPON/A         55  47  74  CALM    29.93S
#WASCO DOT      N/A         58  48  69  CALM    N/A
#WASCO 5NE      N/A         64  47  54  CALM    29.92R
$$

ORZ511-211610-
CENTRAL OREGON

CITY            SKY/WX      TMP DP  RH  WIND    PRES   REMARKS
BEND AIRPORT    MOCLDY      55  43  64  S5      30.06S
MADRAS AIRPORT  PTCLDY      54  46  74  S3      30.03S
REDMOND AIRPORT MOCLDY      52  41  66  CALM    30.04S
#BEND 6E        N/A         56  43  62  CALM    29.87R
#BEND 1SW       N/A         47  42  83  E1      N/A
#BEND-AWBREY    N/A         56  48  74  CALM    29.89S
#BEND-KIM LN    N/A         55  46  72  S5      30.03S
#CROOKED RVR RANN/A         52  44  74  S8      29.91S
#CULVER         N/A         53  45  74  CALM    29.99R
#LAKE BILLY CHINN/A         56  32  40  CALM    30.07S
#POWELL BUTTE 3EN/A         48  42  80  SE2     N/A
#POWELL BUTTE   N/A         56  45  66  CALM    29.68F
#PRINEVILLE 3N  N/A         50  46  86  CALM    29.89S
#WARM SPRINGS   N/A         52  44  74  CALM    29.98S


ORZ509-211610-
EAST SLOPES OF OREGON CASCADES

CITY            SKY/WX      TMP DP  RH  WIND    PRES   REMARKS
#BLUE BOX PASS  N/A         60   6  11  CALM    N/A
#CAMP SHERMAN   N/A         40  36  85  CALM    30.03R
#LA PINE DOT    N/A         44  37  76  CALM    N/A
#LA PINE 4NW    N/A         40  34  79  CALM    29.96R
#LAVA BUTTE DOT N/A         49  43  80  W7      N/A
#SISTERS AIRPOR N/A         44  42  93  CALM    29.91S
#SISTERS ODOT   N/A         45  N/A N/A CALM    N/A
#SISTERS 3N     N/A         43  32  65  CALM    N/A
#SUNRIVER       N/A         48  43  83  S1      29.81S
#SUNRIVER AP    N/A         44  41  89  CALM    29.87S
#SUTTLE LK DOT  N/A         45  44  96  E17     N/A    WCI 38
#TUMALO 3W      N/A         59  45  60  SW3     29.77F
#WANOGA BUTTE D N/A         62  39  43  NE3     N/A

$$

ORZ044-211610-
LOWER COLUMBIA BASIN...OREGON

CITY            SKY/WX      TMP DP  RH  WIND    PRES   REMARKS
HERMISTON       SUNNY       59  47  64  S3      29.95R
#BOARDMAN SCHOOLN/A         55  46  72  CALM    29.94S
#BOARDMAN 3W    N/A         52  48  86  SW1     29.68R
#BOARDMAN 8SW   N/A         58  50  75  CALM    29.93R
#ECHO 8SW       N/A         58  45  62  SW2     29.93R
#IONE SCHOOL    N/A         57  45  64  CALM    29.96S
#IRRIGON 4NW    N/A         53  50  89  E2      N/A
#UMATILLA SCHOOLN/A         52  51  96  CALM    29.98S
#UMATILLA       N/A         57  47  69  CALM    29.93R
$$

ORZ507-211610-
NORTHERN FOOTHILLS OF THE BLUES

CITY            SKY/WX      TMP DP  RH  WIND    PRES   REMARKS
PENDLETON AIRPT SUNNY       59  45  60  SE6     29.97S
#ADAMS 3WNW     N/A         55  46  72  CALM    29.93S
#ATHENA         N/A         53  47  80  CALM    29.95R
#HELIX SCHOOL   N/A         52  45  77  CALM    29.93R
#HELIX 3N       N/A         60  46  60  S1      29.96R
#HOLDMAN 5SE    N/A         58  47  67  CALM    29.98R
#HOLDMAN 6E     N/A         58  45  62  CALM    29.74R
#M-F GROVE ELEM N/A         57  41  55  CALM    29.95R
#M-FREEWATER 5SEN/A         56  49  77  NE1     29.97R
#PENDLETON DNTN N/A         51  39  63  E2      29.99R
#PDT AQUATIC CTRN/A         56  41  57  CALM    29.94F
#PENDLETON 5NE  N/A         52  45  77  CALM    29.93S
#PDT SUNRIDGE   N/A         53  45  74  CALM    29.98S
#PENDLETON 7NW  N/A         57  46  67  E5      25.51F
#PILOT ROCK     N/A         57  44  62  CALM    29.99S
#TUTUILLA       N/A         53  47  80  CALM    29.95R
#UMAPINE 2E     N/A         55  50  83  CALM    29.93R
#WESTON SCHOOL  N/A         63  40  43  CALM    29.95R

$$

ORZ508-211610-
SOUTHERN FOOTHILLS OF THE BLUES

CITY            SKY/WX      TMP DP  RH  WIND    PRES   REMARKS
LEXINGTON       SUNNY       61  46  58  E8      29.99F
#AJAX           N/A         63  40  43  CALM    29.93S
#CONDON SCHOOL  N/A         60  47  62  CALM    29.98S
#CONDON 5W      N/A         63  41  44  NE7     30.01S
#FOSSIL SCHOOL  N/A         50  43  77  CALM    30.00S
#HEPPNER EOC    N/A         58  45  62  SE5     29.87S
#HEPPNER 4NE    N/A         61  48  62  E1      29.91S
#LEXINGTON 2SE  N/A         60  46  60  SE6     29.94S
#MIKKALO        N/A         64  43  46  SE2     29.97S
#OLEX 4N        N/A         61  46  58  CALM    29.95S
#RUGGS 5NE      N/A         60  44  55  CALM    30.17S
#RUGGS 2SW      N/A         61  44  53  E1      29.92F

$$

ORZ502-503-211610-
BLUE MOUNTAINS

CITY            SKY/WX      TMP DP  RH  WIND    PRES   REMARKS
MEACHAM         SUNNY       43  37  79  CALM    30.06F
#BATTLE MTN DOT N/A         52  49  89  S1      N/A
#HARDMAN 10S    N/A         60  44  55  CALM    30.12F
#HEPPNER 15SE   N/A         55  45  69  CALM    29.98S
#LADD CYN SMT   N/A         51  39  63  S3      N/A
#LADD CREEK ODOTN/A         47  42  83  S6      N/A
#N POWDER DOT   N/A         44  44  100 CALM    N/A
#PIKES PEAK     N/A         67  43  42  S7      27.99S
#TOLLGATE       N/A         58  43  57  CALM    30.04S
#TROY SCHOOL    N/A         51  46  83  CALM    29.84S
#UKIAH          N/A         39  37  92  CALM    30.05F
#WESTON 4E      N/A         67  42  40  CALM    29.83R
$$

ORZ505-211610-
JOHN DAY BASIN

CITY            SKY/WX      TMP DP  RH  WIND    PRES   REMARKS
JOHN DAY        MOCLDY      57  40  53  E7      30.07R
#JOHN DAY KJDY  N/A         50  41  71  CALM    30.09F
#MONUMENT HS    N/A         49  41  74  CALM    30.03S
#MT. VERNON 5SE N/A         59  41  51  CALM    30.03S
#WINLOCK        N/A         60  47  62  CALM    30.11F
$$

ORZ506-211610-
OCHOCO AND JOHN DAY HIGHLANDS

CITY            SKY/WX      TMP DP  RH  WIND    PRES   REMARKS
#BUCK CREEK DOT N/A         59  45  60  CALM    N/A
#HORSE RIDGE DO N/A         42  31  65  E1      N/A
#KEYES SMT DOT  N/A         60  44  55  SE2     N/A
#PAULINA SCHOOL N/A         43  37  79  CALM    30.05F
#PINE MTN OBS   N/A         61  38  42  S5      N/A
#PRAIRIE CITY   N/A         45  40  82  CALM    30.11F
#SENECA 9NW     N/A         37  34  89  CALM    29.95S
$$

ORZ049-211610-
GRANDE RONDE VALLEY

CITY            SKY/WX      TMP DP  RH  WIND    PRES   REMARKS
LA GRANDE       SUNNY       50  36  58  CALM    30.05S
#COVE           N/A         50  45  83  CALM    29.97S
#COVE SCHOOL    N/A         50  44  80  CALM    30.03S
#COVE 6NW       N/A         42  38  86  CALM    30.03S
#ELGIN 3N       N/A         49  41  74  CALM    29.79S
#ELGIN 1E       N/A         44  38  79  CALM    N/A
#IMBLER SCHOOL  N/A         50  43  77  CALM    30.02R
#LADD CYN DOT   N/A         54  42  64  SE6     N/A
#LA GRANDE ELEM N/A         55  44  66  CALM    30.04R
#UNION 1S       N/A         48  43  83  CALM    29.89S
$$

ORZ050-211610-
WALLOWA COUNTY

CITY            SKY/WX      TMP DP  RH  WIND    PRES   REMARKS
#ENTERPRISE AP  N/A         51  37  59  CALM    30.02S
#ENTERPRISE HS  N/A         44  39  82  CALM    30.10R
#IMNAHA SCHOOL  N/A         53  42  66  CALM    30.00F
#IMNAHA 10S     N/A         55  40  57  SW1     30.05R
#JOSEPH 3N      N/A         43  39  86  CALM    30.10R
#JOSEPH 3W      N/A         71  40  32  CALM    29.95S
#LOSTINE        N/A         50  42  74  CALM    29.78S
#MT HOWARD 8000 N/A         59  25  27  CALM    30.34S
#PROMISE 1S     N/A         55  42  61  CALM    30.06S
#SHEEP RDG 7000 N/A         62  32  32  CALM    29.90S
#WALLOWA SCHOOL N/A         43  39  86  CALM    30.91S



$$



USA.gov is the U.S. government's official web portal to all federal, state and local government web resources and services.